Weather History for Fulton, NY

Change the Weather History Date:

Saturday, November 9, 2013

  Actual Average (KSYR) Record (KSYR)
Temperature  
Mean Temperature 40 °F 43 °F  
Max Temperature 46 °F 51 °F 74 °F (1931)
Min Temperature 35 °F 35 °F 17 °F (1971)
Degree Days  
Heating Degree Days 24 22  
Month to date heating degree days 187  
Since 1 July heating degree days 804  
Cooling Degree Days 0 0  
Month to date cooling degree days 0  
Year to date cooling degree days 569  
Moisture  
Dew Point 32 °F    
Average Humidity 75    
Maximum Humidity 93    
Minimum Humidity 47    
Precipitation  
Precipitation 0.09 in 0.12 in 1.03 in (1913)
Month to date precipitation 1.07  
Year to date precipitation 32.79  
Snow  
Snow 0.00 in 0.20 in 7.90 in (1995)
Month to date snowfall 1.4  
Since 1 July snowfall 1.8  
Since 1 September snowfall 1.8  
Snow Depth -    
Sea Level Pressure  
Sea Level Pressure 30.10 in    
Wind  
Wind Speed 5 mph (South)    
Max Wind Speed 10 mph    
Max Gust Speed -    
Visibility 9 miles    
Events Rain    
T = Trace of Precipitation, MM = Missing Value Source: NWS Daily Summary

Daily Weather History Graph

Daily Weather History Graph

Search for Another Location

Airport:

Trip Planner

Search our weather history database for the weather conditions in past years. The results will help you decide how hot, cold, wet, or windy it might be!

Date:

Astronomy

Nov. 09, 2013 Rise Set
Actual Time 6:51 AM EST 4:46 PM EST
Civil Twilight 6:21 AM EST 5:17 PM EST
Nautical Twilight 5:46 AM EST 5:51 PM EST
Astronomical Twilight 5:13 AM EST 6:24 PM EST
Moon 12:25 PM EST (11/9) 11:17 PM EST (11/9)
Length of Visible Light 10h 56m
Length of Day
9h 55m
Waxing Crescent, 44% of the Moon is Illuminated
Nov 9
Waxing Crescent
Nov 10
First Quarter
Nov 17
Full
Nov 25
Last Quarter
Dec 2
New

Hourly Weather History & Observations

Time (EST) Temp. Windchill Dew Point Humidity Pressure Visibility Wind Dir Wind Speed Gust Speed Precip Events Conditions
12:54 AM 39.9 °F 37.8 °F 27.0 °F 60% 30.21 in 10.0 mi Variable 3.5 mph - N/A   Overcast
1:54 AM 37.9 °F 35.5 °F 30.9 °F 76% 30.21 in 10.0 mi SSW 3.5 mph - N/A   Overcast
2:54 AM 37.0 °F 29.8 °F 32.0 °F 82% 30.22 in 10.0 mi West 10.4 mph - 0.00 in Rain Light Rain
3:16 AM 35.6 °F 29.2 °F 33.8 °F 93% 30.20 in 6.0 mi WSW 8.1 mph - 0.01 in Rain Light Rain
3:54 AM 35.1 °F 31.0 °F 33.1 °F 92% 30.20 in 5.0 mi SW 4.6 mph - 0.04 in Rain Light Rain
4:04 AM 35.6 °F 29.9 °F 33.8 °F 93% 30.19 in 7.0 mi SW 6.9 mph - 0.00 in Rain Light Rain
4:11 AM 35.6 °F 29.9 °F 33.8 °F 93% 30.19 in 6.0 mi WSW 6.9 mph - 0.00 in Rain Light Rain
4:54 AM 37.0 °F 32.4 °F 34.0 °F 89% 30.21 in 9.0 mi SW 5.8 mph - 0.02 in Rain Light Rain
5:21 AM 37.4 °F 32.1 °F 33.8 °F 87% 30.19 in 6.0 mi WSW 6.9 mph - 0.00 in Rain Light Rain
5:54 AM 37.0 °F 31.6 °F 34.0 °F 89% 30.20 in 10.0 mi South 6.9 mph - 0.00 in   Overcast
6:31 AM 37.4 °F - 32.0 °F 81% 30.19 in 10.0 mi Calm Calm - 0.00 in Rain Light Rain
6:54 AM 36.0 °F - 32.0 °F 86% 30.21 in 7.0 mi Calm Calm - 0.01 in Rain Light Rain
7:19 AM 35.6 °F 31.7 °F 32.0 °F 87% 30.19 in 7.0 mi SSW 4.6 mph - 0.00 in Rain Light Rain
7:29 AM 35.6 °F - 33.8 °F 93% 30.19 in 5.0 mi Calm Calm - 0.00 in Rain Light Rain
7:36 AM 35.6 °F - 33.8 °F 93% 30.20 in 10.0 mi Calm Calm - 0.00 in   Overcast
7:50 AM 35.6 °F - 33.8 °F 93% 30.20 in 6.0 mi Calm Calm - 0.00 in Rain Light Rain
7:54 AM 36.0 °F - 33.1 °F 89% 30.22 in 6.0 mi Calm Calm - 0.00 in Rain Light Rain
8:28 AM 37.4 °F - 33.8 °F 87% 30.20 in 10.0 mi Calm Calm - 0.00 in   Overcast
8:54 AM 37.9 °F 35.5 °F 33.1 °F 83% 30.21 in 10.0 mi SSE 3.5 mph - 0.00 in   Overcast
9:54 AM 39.0 °F 35.7 °F 32.0 °F 76% 30.19 in 10.0 mi South 4.6 mph - N/A   Overcast
10:54 AM 39.9 °F 36.7 °F 34.0 °F 79% 30.16 in 10.0 mi South 4.6 mph - N/A   Overcast
11:54 AM 42.1 °F 36.6 °F 32.0 °F 67% 30.11 in 10.0 mi South 9.2 mph - 0.00 in   Overcast
12:54 PM 44.1 °F 39.0 °F 33.1 °F 65% 30.05 in 10.0 mi SSE 9.2 mph - N/A   Partly Cloudy
1:54 PM 44.1 °F 40.8 °F 32.0 °F 63% 30.01 in 10.0 mi SE 5.8 mph - N/A   Partly Cloudy
2:54 PM 45.0 °F 43.5 °F 30.0 °F 56% 29.97 in 10.0 mi Variable 3.5 mph - N/A   Overcast
3:54 PM 45.0 °F 41.8 °F 30.0 °F 56% 29.95 in 10.0 mi Variable 5.8 mph - N/A   Overcast
4:54 PM 45.0 °F 42.6 °F 27.0 °F 49% 29.94 in 10.0 mi SE 4.6 mph - N/A   Overcast
5:54 PM 46.0 °F 41.0 °F 27.0 °F 47% 29.95 in 10.0 mi South 10.4 mph - 0.00 in   Overcast
6:54 PM 45.0 °F 42.6 °F 28.0 °F 52% 29.94 in 10.0 mi SE 4.6 mph - 0.00 in   Overcast
7:54 PM 45.0 °F 40.6 °F 28.0 °F 52% 29.91 in 10.0 mi SSE 8.1 mph - N/A   Overcast
8:54 PM 45.0 °F 42.6 °F 28.0 °F 52% 29.88 in 10.0 mi SE 4.6 mph - N/A   Overcast
9:54 PM 45.0 °F 41.8 °F 30.0 °F 56% 29.85 in 10.0 mi South 5.8 mph - 0.00 in Rain Light Rain
10:54 PM 44.1 °F - 35.1 °F 71% 29.81 in 10.0 mi Calm Calm - 0.01 in Rain Light Rain
11:54 PM 44.1 °F 38.6 °F 35.1 °F 71% 29.78 in 10.0 mi South 10.4 mph - 0.01 in Rain Light Rain